Location: Huntsville
(41.2590°N, 111.7678°W)
Time: 13:58:58
(UTC+00:00)

Courier 1B Rocket - Pass Details

Date: 23 June 2021
Orbit: 920 x 1202 km, 28.2° (Epoch: 24 July)

Event Time Altitude Azimuth Distance (km) Brightness Sun altitude
Rises 23:26:28 0° 213° (SSW) 4,013 8.6 37.9°
Reaches altitude 10° 23:30:39 10° 193° (SSW) 3,004 7.8 37.2°
Maximum altitude 23:34:42 16° 159° (SSE) 2,553 7.2 36.4°
Drops below altitude 10° 23:38:39 10° 125° (SE) 2,894 7.2 35.6°
Sets 23:42:32 0° 105° (ESE) 3,789 7.6 34.9°
